Location: ???????
(60.4260°N, 46.9069°E)
Time: 16:33:16
(UTC+00:00)

Cosmos 2333 Rocket - Pass Details

Date: 30 March 2020
Orbit: 840 x 861 km, 70.8° (Epoch: 05 June)

Event Time Altitude Azimuth Distance (km) Brightness Sun altitude
Rises 00:07:22 0° 320° (NW) 3,410 5.4 -15.9°
Reaches altitude 10° 00:09:57 10° 313° (NW) 2,471 4.6 -15.6°
Maximum altitude 00:15:10 40° 246° (WSW) 1,225 2.6 -15.1°
Drops below altitude 10° 00:20:24 10° 178° (S) 2,460 4.3 -14.6°
Sets 00:22:57 0° 172° (S) 3,394 5.1 -14.3°
